Regional Weather Roundup
Issued by NWS

Home | Current Version | Previous Version | Text Only | Print | Product List | Glossary Off
Versions: 1 2 3 4 5 6 7 8 9 10 11 12 13 14 15 16 17 18 19 20 21 22 23 24 25 26 27 28 29 30 31 32 33 34 35 36 37 38 39 40 41 42 43 44 45 46 47 48 49 50

000
ASUS43 KMPX 041401
RWRMN
WEATHER ROUNDUP FOR MINNESOTA
NATIONAL WEATHER SERVICE TWIN CITIES/CHANHASSEN MN
800 AM CST SUN DEC 04 2016


NOTE: "FAIR" INDICATES FEW OR NO CLOUDS BELOW 12,000 FEET WITH NO
SIGNIFICANT WEATHER AND/OR OBSTRUCTIONS TO VISIBILITY. N/A MEANS
CURRENT SKY AND/OR WEATHER CONDITIONS ARE NOT AVAILABLE.

MNZ060>063-068>070-041500-
   Twin Cities Metro

CITY           SKY/WX    TMP DP  RH WIND       PRES   REMARKS
TWIN CITIES    CLOUDY    33  30  88 SE8       29.92F WCI  26
ST PAUL        LGT SNOW  32  32 100 SE12      29.93F FOG     WCI  23
CRYSTAL        CLOUDY    33  29  85 SE10      29.90F FOG     WCI  25
BLAINE         LGT SNOW  34  34 100 SE10      29.91F WCI  26
LAKEVILLE      CLOUDY    30  30 100 SE6       29.91F FOG     WCI  24
EDEN PRAIRIE   CLOUDY    34  31  88 SE6       29.90F WCI  29
SOUTH ST PAUL  LGT SNOW  32  32  99 SE5       29.92F WCI  28
LAKE ELMO      LGT SNOW  32  32 100 SE7       29.93F WCI  26
$$
MNZ001>005-007-008-013>017-022>024-027-028-041500-
   Northwest Minnesota

CITY           SKY/WX    TMP DP  RH WIND       PRES   REMARKS
BEMIDJI        CLOUDY    30  29  97 SE13      29.78F FOG     WCI  20
HALLOCK        LGT SNOW  34  32  93 S16       29.69F WCI  23
ROSEAU         CLOUDY    32  28  86 SE12      29.75F WCI  23
WARROAD        CLOUDY    30  27  86 SE10      29.77F WCI  21
THIEF RVR FALL FLURRIES  32  31  96 SE15      29.73F WCI  22
CROOKSTON      LGT SNOW  32  32 100 S17       29.73F WCI  21
FOSSTON        LGT SNOW  30  28  93 SE8       29.75F WCI  23
DETROIT LAKES  LGT SNOW  34  32  93 S12G17    29.76F WCI  25
MOORHEAD       DRIZZLE   34  30  86 S12       29.75F WCI  25
PARK RAPIDS    CLOUDY    32  29  88 SE14      29.78F FOG     WCI  22
$$
MNZ006-009>011-018-025>026-041500-
   North Central Minnesota

CITY           SKY/WX    TMP DP  RH WIND       PRES   REMARKS
BAUDETTE       CLOUDY    29  25  85 SE13G20   29.80F WCI  19
FLAG ISLAND    CLOUDY    30  27  86 SE20G25   29.77F WCI  18
INTL FALLS     LGT SNOW  27  25  92 SE9       29.85F VSB 1   WCI  18
WASKISH        FLURRIES  30  28  93 SE6       29.81F WCI  24
BIG FORK       LGT SNOW  28  27  93 SE3       29.85F
LONGVILLE      LGT SNOW  28  28 100 SE6       29.82F WCI  22
GRAND RAPIDS   LGT SNOW  28  26  92 SE8       29.87F FOG     WCI  20
CRANE LAKE     LGT SNOW  27  25  93 SE3       29.92F
ORR            MIX PCPN  27  23  86 SE9       29.85F WCI  17
COOK           LGT SNOW  27  25  93 E5        29.89F WCI  21
$$
MNZ012-019>021-037-041500-
   Northeast Minnesota

CITY           SKY/WX    TMP DP  RH WIND       PRES   REMARKS
DULUTH         LGT SNOW  28  27  96 SE10      29.92F VSB 1   WCI  19
ELY            LGT SNOW  27  25  93 SE8       29.92F WCI  18
HIBBING        LGT SNOW  26  24  92 SE10      29.89F FOG     WCI  16
EVELETH        LGT SNOW  28  26  93 SE7       29.91F WCI  20
DULUTH HARBOR  LGT SNOW  30  28  93 SE3       29.97F
TWO HARBORS    MIX PCPN  32  27  80 SE5       29.95F VSB 3/4 WCI  27
SILVER BAY     CLOUDY    30  28  93 SE3       29.96F FOG
GRAND MARAIS     N/A     35  25  66 S9        30.03F WCI  28
G MARAIS ARPRT CLOUDY    27  19  74 SE8       29.98S WCI  18
$$
MNZ029>031-032-039>041-046>048-054>057-064-041500-
   West Central Minnesota

CITY           SKY/WX    TMP DP  RH WIND       PRES   REMARKS
FERGUS FALLS   DRIZZLE   34  34 100 S14       29.81F WCI  24
WHEATON        FLURRIES N/A N/A N/A S9G16     29.80F
MORRIS         MOCLDY    34  32  93 S10       29.79F FOG     WCI  26
ALEXANDRIA     CLOUDY    33  32  96 S10       29.80F WCI  25
ELBOW LAKE     CLOUDY    32  32 100 S13       29.79F WCI  22
WADENA         CLOUDY    32  30  93 S10       29.79F WCI  24
GLENWOOD       CLOUDY    32  32 100 S13       29.81F FOG     WCI  22
BENSON         CLOUDY    34  32  93 S9        29.82F WCI  26
ORTONVILLE     CLOUDY    34  28  80 CALM      29.80S
MADISON        CLOUDY    36  36 100 S7        29.82S
WILLMAR        CLOUDY    34  34 100 S3        29.85F FOG
$$
MNZ033>034-036-042>043-049>051-058-059-041500-
   Central Minnesota

CITY           SKY/WX    TMP DP  RH WIND       PRES   REMARKS
ST CLOUD       CLOUDY    32  32 100 SE10      29.87F FOG     WCI  24
PAYNESVILLE    DRIZZLE   32  33 100 S9        29.85F WCI  25
AITKIN         LGT SNOW  32  27  80 SE10      29.85F WCI  24
PINE RIVER     MIX PCPN  30  30 100 SE10      29.86F WCI  21
BRAINERD       CLOUDY    31  30  96 SE9       29.85F FOG     WCI  23
STAPLES        CLOUDY    30  30 100 SE7       29.81F FOG     WCI  23
LONG PRAIRIE   CLOUDY    32  32 100 SE14      29.82F FOG     WCI  22
LITTLE FALLS   CLOUDY    32  30  93 SE7       29.85F FOG     WCI  26
LITCHFIELD     CLOUDY    34  34 100 SE6       29.87S FOG     WCI  29
BUFFALO        CLOUDY    33  31  94 SE7       29.90S FOG     WCI  26
MAPLE LAKE     CLOUDY    33  33  99 SE8       29.89F FOG     WCI  27
$$
MNZ037-044-045-052-053-041500-
   East Central Minnesota

CITY           SKY/WX    TMP DP  RH WIND       PRES   REMARKS
PRINCETON      MIX PCPN  34  30  86 SE9       29.89F WCI  26
MORA           LGT SNOW  32  30  93 SE6       29.92S WCI  26
CAMBRIDGE      FLURRIES  34  28  80 SE5       29.89F WCI  30
RUSH CITY      CLOUDY    30  28  93 SE7       29.92F WCI  23
MOOSE LAKE     LGT SNOW  30  28  93 SE3       29.89F
HINCKLEY       LGT SNOW  32  30  93 SE5       29.92F WCI  27
CLOQUET        LGT SNOW  27  27 100 E6        29.91F WCI  20
MCGREGOR       CLOUDY    30  28  93 SE10      29.88F WCI  21
$$
MNZ071>073-080-081-089-090-097-098-041500-
   Southwest Minnesota

CITY           SKY/WX    TMP DP  RH WIND       PRES   REMARKS
MONTEVIDEO     CLOUDY    34  34 100 S5        29.85F WCI  30
GRANITE FALLS  MOCLDY    34  33  94 SE9       29.86S WCI  27
CANBY          PTCLDY    34  31  90 SW16      29.82S WCI  23
MARSHALL       MOCLDY    33  29  85 SW14      29.84F WCI  23
REDWOOD FALLS  MOCLDY    34  31  88 S9        29.86S WCI  27
OLIVIA         MOCLDY    34  32  93 S7        29.85F FOG     WCI  28
PIPESTONE      CLOUDY    32  30  93 SW12      29.84S FOG     WCI  23
WINDOM         PTCLDY    34  32  93 CALM      29.87S
WORTHINGTON    CLOUDY    32  31  96 SW12      29.87S WCI  23
JACKSON        MOCLDY    32  32 100 SW9       29.88S FOG     WCI  24
TRACY          CLOUDY    34  32  90 SW15      29.85F WCI  25
SLAYTON        CLOUDY    32  30  93 SW13      29.85S WCI  22
$$
MNZ065>067-074>077-082>085-091>093-041500-
   South Central Minnesota

CITY           SKY/WX    TMP DP  RH WIND       PRES   REMARKS
MANKATO        CLOUDY    33  32  96 SW9       29.91R FOG     WCI  25
NEW ULM        CLOUDY    34  34 100 S6        29.88F FOG     WCI  29
ST JAMES       CLOUDY    34  34 100 S8        29.90S WCI  27
FAIRMONT       CLOUDY    33  32  96 SW9       29.91S WCI  25
GLENCOE        CLOUDY    33  34 100 S7        29.89S FOG     WCI  27
FARIBAULT      CLOUDY    34  32  93 SE10      29.91F WCI  26
OWATONNA       CLOUDY    34  30  86 S13       29.90F WCI  25
WASECA         CLOUDY    32  32 100 S13       29.91F FOG     WCI  22
ALBERT LEA     CLOUDY    36  36 100 S9        29.90F FOG
$$
MNZ078>079-086>088-094>096-041500-
   Southeast Minnesota

CITY           SKY/WX    TMP DP  RH WIND       PRES   REMARKS
ROCHESTER      SNOW      32  31  96 S14       29.93F VSB 1/2 WCI  22
RED WING       LGT SNOW  34  32  93 SE8       29.95F WCI  27
STANTON        LGT SNOW  34  31  91 SE10      29.91F WCI  26
DODGE CENTER   MIX PCPN  32  30  93 S13       29.91F WCI  22
WINONA         LGT SNOW  34  34 100 SE6       29.99F WCI  29
AUSTIN         LGT SNOW  34  30  86 S10G16    29.92F WCI  26
PRESTON        LGT SNOW  31  30  96 S12       29.95F VSB 3/4 WCI  22
$$
ABBREVIATIONS USED IN REMARKS
   TC - TEMPERATURES IN CELSIUS
  WCI - WIND CHILL INDEX
   HX - HEAT INDEX
  VSB - VISIBILITY
$$



USA.gov is the U.S. government's official web portal to all federal, state and local government web resources and services.